GFSNGP_prec_precacc24_054.txt.gz
Total_Precipitation_Accumulation
0.00 0.00 0.00 0.00 0.00 0.00 0.00 0.00 0.00 0.00 0.00 0.00 0.00 0.00 0.00 0.00 0.00 0.00 0.00 0.00 0.00 0.00 0.01 0.02 0.06 0.05 0.07 0.08 0.15 0.21 0.18 0.11 0.16 0.14 0.13 0.16 0.13 0.10 0.06 0.06 0.04 0.03 0.02 0.03
0.00 0.00 0.00 0.00 0.00 0.00 0.00 0.00 0.00 0.00 0.00 0.00 0.00 0.00 0.00 0.00 0.00 0.00 0.00 0.00 0.00 0.00 0.01 0.01 0.01 0.01 0.05 0.08 0.13 0.12 0.10 0.08 0.11 0.10 0.10 0.14 0.11 0.07 0.03 0.03 0.03 0.03 0.05 0.07
0.00 0.00 0.00 0.00 0.00 0.00 0.00 0.00 0.00 0.00 0.00 0.00 0.00 0.00 0.00 0.00 0.00 0.00 0.00 0.00 0.00 0.00 0.00 0.02 0.02 0.02 0.03 0.06 0.05 0.05 0.05 0.05 0.07 0.06 0.08 0.08 0.07 0.03 0.03 0.05 0.08 0.13 0.22 0.23
0.00 0.00 0.01 0.00 0.00 0.00 0.00 0.00 0.00 0.00 0.00 0.00 0.00 0.00 0.00 0.00 0.00 0.00 0.00 0.00 0.00 0.00 0.01 0.02 0.02 0.00 0.01 0.02 0.02 0.03 0.02 0.04 0.04 0.05 0.05 0.04 0.04 0.04 0.09 0.17 0.23 0.21 0.11 0.02
0.01 0.00 0.00 0.00 0.00 0.00 0.00 0.00 0.00 0.00 0.00 0.00 0.00 0.00 0.00 0.00 0.00 0.00 0.00 0.00 0.00 0.00 0.00 0.00 0.00 0.00 0.00 0.01 0.01 0.02 0.03 0.06 0.05 0.02 0.03 0.06 0.13 0.21 0.23 0.16 0.06 0.02 0.01 0.00
0.14 0.02 0.00 0.00 0.00 0.00 0.00 0.00 0.00 0.00 0.00 0.00 0.00 0.00 0.00 0.00 0.00 0.00 0.00 0.00 0.00 0.00 0.00 0.00 0.00 0.00 0.00 0.00 0.00 0.00 0.01 0.01 0.02 0.07 0.14 0.19 0.19 0.12 0.05 0.02 0.01 0.00 0.00 0.00
0.25 0.13 0.00 0.00 0.00 0.00 0.00 0.00 0.00 0.00 0.00 0.00 0.00 0.00 0.00 0.00 0.00 0.00 0.00 0.00 0.00 0.00 0.00 0.00 0.00 0.00 0.00 0.00 0.00 0.01 0.03 0.05 0.09 0.15 0.15 0.12 0.06 0.01 0.00 0.00 0.00 0.00 0.00 0.00
0.22 0.16 0.01 0.00 0.00 0.00 0.00 0.00 0.00 0.00 0.00 0.00 0.00 0.00 0.00 0.00 0.00 0.00 0.00 0.00 0.00 0.00 0.00 0.00 0.00 0.00 0.00 0.00 0.00 0.00 0.01 0.03 0.06 0.03 0.00 0.00 0.00 0.00 0.00 0.00 0.00 0.00 0.00 0.00
0.14 0.08 0.00 0.01 0.01 0.02 0.00 0.00 0.00 0.00 0.00 0.00 0.00 0.00 0.00 0.00 0.00 0.00 0.00 0.00 0.00 0.00 0.00 0.00 0.00 0.00 0.00 0.00 0.00 0.00 0.00 0.00 0.00 0.00 0.00 0.00 0.00 0.00 0.00 0.00 0.00 0.00 0.00 0.00
0.02 0.01 0.00 0.02 0.04 0.02 0.00 0.00 0.00 0.00 0.00 0.01 0.01 0.00 0.00 0.00 0.00 0.00 0.00 0.00 0.00 0.00 0.00 0.00 0.00 0.00 0.00 0.00 0.00 0.00 0.00 0.00 0.00 0.00 0.00 0.00 0.00 0.00 0.00 0.00 0.00 0.00 0.00 0.00
0.00 0.00 0.00 0.02 0.02 0.02 0.01 0.00 0.00 0.00 0.00 0.00 0.00 0.00 0.00 0.00 0.00 0.00 0.00 0.00 0.00 0.00 0.00 0.00 0.00 0.00 0.00 0.00 0.00 0.00 0.00 0.00 0.00 0.00 0.00 0.00 0.00 0.00 0.00 0.00 0.00 0.00 0.00 0.00
0.00 0.00 0.00 0.00 0.00 0.03 0.01 0.00 0.00 0.00 0.00 0.00 0.00 0.00 0.00 0.00 0.00 0.00 0.00 0.00 0.00 0.00 0.00 0.00 0.00 0.00 0.00 0.00 0.00 0.00 0.00 0.00 0.00 0.00 0.00 0.00 0.00 0.00 0.00 0.00 0.00 0.00 0.00 0.00
0.01 0.02 0.01 0.02 0.01 0.01 0.00 0.00 0.00 0.00 0.00 0.00 0.01 0.00 0.00 0.00 0.00 0.00 0.00 0.00 0.00 0.00 0.00 0.00 0.00 0.00 0.00 0.00 0.00 0.00 0.00 0.00 0.00 0.00 0.00 0.00 0.00 0.00 0.00 0.00 0.00 0.00 0.00 0.00
0.00 0.00 0.00 0.00 0.00 0.00 0.00 0.00 0.00 0.00 0.00 0.00 0.01 0.00 0.00 0.00 0.00 0.00 0.00 0.00 0.00 0.00 0.00 0.00 0.00 0.00 0.00 0.00 0.00 0.00 0.00 0.00 0.00 0.00 0.00 0.00 0.00 0.01 0.01 0.02 0.03 0.02 0.01 0.01
0.00 0.00 0.00 0.00 0.00 0.00 0.00 0.00 0.00 0.00 0.00 0.00 0.00 0.00 0.00 0.00 0.00 0.00 0.00 0.00 0.00 0.00 0.00 0.00 0.00 0.00 0.00 0.00 0.00 0.00 0.00 0.00 0.01 0.03 0.03 0.03 0.04 0.05 0.06 0.06 0.06 0.05 0.03 0.02
0.00 0.00 0.00 0.00 0.00 0.00 0.00 0.00 0.00 0.00 0.00 0.00 0.00 0.00 0.00 0.00 0.00 0.00 0.00 0.00 0.00 0.00 0.00 0.01 0.02 0.02 0.03 0.04 0.06 0.09 0.11 0.11 0.11 0.14 0.16 0.17 0.15 0.11 0.07 0.06 0.06 0.04 0.03 0.02
0.00 0.00 0.00 0.00 0.00 0.00 0.00 0.00 0.00 0.00 0.00 0.00 0.00 0.00 0.00 0.00 0.00 0.01 0.02 0.02 0.02 0.04 0.09 0.17 0.26 0.29 0.32 0.33 0.31 0.32 0.31 0.30 0.28 0.24 0.21 0.17 0.14 0.10 0.07 0.06 0.04 0.03 0.02 0.01
0.01 0.01 0.00 0.00 0.00 0.00 0.00 0.00 0.00 0.00 0.00 0.00 0.02 0.03 0.06 0.08 0.12 0.16 0.20 0.24 0.34 0.46 0.52 0.50 0.46 0.42 0.43 0.40 0.35 0.30 0.25 0.20 0.17 0.14 0.12 0.09 0.06 0.04 0.04 0.04 0.02 0.02 0.02 0.03
0.07 0.07 0.06 0.05 0.05 0.04 0.03 0.03 0.04 0.07 0.12 0.16 0.21 0.31 0.41 0.51 0.59 0.68 0.72 0.69 0.66 0.61 0.63 0.49 0.38 0.28 0.24 0.20 0.16 0.14 0.13 0.11 0.08 0.07 0.06 0.04 0.03 0.03 0.03 0.02 0.02 0.03 0.05 0.10
0.11 0.09 0.08 0.10 0.12 0.13 0.18 0.26 0.30 0.39 0.48 0.45 0.48 0.58 0.68 0.77 0.74 0.69 0.60 0.53 0.47 0.38 0.31 0.25 0.20 0.16 0.13 0.11 0.10 0.08 0.07 0.06 0.04 0.03 0.03 0.02 0.03 0.03 0.02 0.02 0.02 0.03 0.03 0.04
0.45 0.45 0.46 0.47 0.58 0.66 0.71 0.75 0.65 0.69 0.75 0.63 0.54 0.58 0.55 0.55 0.47 0.40 0.31 0.29 0.33 0.25 0.19 0.16 0.13 0.10 0.07 0.06 0.05 0.05 0.04 0.04 0.04 0.03 0.03 0.02 0.02 0.02 0.01 0.01 0.01 0.01 0.02 0.02
0.56 0.55 0.62 0.62 0.52 0.60 0.63 0.57 0.46 0.45 0.44 0.42 0.40 0.37 0.32 0.35 0.32 0.27 0.24 0.19 0.20 0.15 0.11 0.09 0.07 0.06 0.04 0.05 0.04 0.03 0.02 0.02 0.01 0.01 0.01 0.01 0.01 0.01 0.01 0.01 0.01 0.01 0.01 0.01
0.62 0.55 0.49 0.42 0.35 0.37 0.35 0.33 0.34 0.26 0.26 0.26 0.25 0.23 0.19 0.19 0.17 0.11 0.14 0.15 0.10 0.09 0.06 0.05 0.04 0.02 0.02 0.02 0.01 0.01 0.00 0.00 0.00 0.01 0.01 0.01 0.02 0.01 0.01 0.01 0.01 0.01 0.01 0.01
0.46 0.43 0.42 0.41 0.27 0.16 0.20 0.26 0.18 0.16 0.15 0.15 0.15 0.14 0.10 0.08 0.09 0.08 0.07 0.06 0.04 0.03 0.03 0.02 0.00 0.00 0.00 0.00 0.01 0.00 0.01 0.01 0.01 0.02 0.02 0.01 0.01 0.02 0.02 0.01 0.01 0.01 0.02 0.01
0.34 0.32 0.30 0.24 0.18 0.22 0.20 0.18 0.12 0.10 0.08 0.07 0.06 0.06 0.05 0.05 0.06 0.08 0.05 0.04 0.03 0.04 0.03 0.01 0.00 0.00 0.00 0.01 0.02 0.01 0.01 0.02 0.02 0.02 0.02 0.02 0.01 0.01 0.01 0.01 0.02 0.02 0.01 0.01
0.24 0.21 0.20 0.16 0.16 0.15 0.12 0.08 0.09 0.12 0.08 0.08 0.09 0.09 0.07 0.05 0.04 0.04 0.04 0.03 0.02 0.01 0.02 0.03 0.01 0.01 0.01 0.01 0.01 0.01 0.01 0.01 0.02 0.03 0.02 0.01 0.01 0.01 0.01 0.01 0.01 0.01 0.01 0.01
0.17 0.15 0.13 0.12 0.14 0.15 0.13 0.12 0.11 0.11 0.10 0.09 0.09 0.08 0.06 0.05 0.04 0.03 0.03 0.01 0.01 0.01 0.01 0.02 0.02 0.02 0.01 0.01 0.01 0.01 0.02 0.02 0.02 0.02 0.01 0.01 0.01 0.01 0.01 0.01 0.01 0.00 0.00 0.00

GFSNGP_prec_precacc24_057.txt.gz
Total_Precipitation_Accumulation
0.00 0.00 0.00 0.00 0.00 0.00 0.00 0.00 0.00 0.00 0.00 0.00 0.00 0.00 0.00 0.00 0.00 0.00 0.00 0.00 0.00 0.00 0.00 0.02 0.04 0.04 0.05 0.06 0.13 0.20 0.18 0.11 0.16 0.16 0.16 0.18 0.18 0.15 0.13 0.10 0.07 0.05 0.06 0.07
0.00 0.00 0.00 0.00 0.00 0.00 0.00 0.00 0.00 0.00 0.00 0.00 0.00 0.00 0.00 0.00 0.00 0.00 0.00 0.00 0.00 0.00 0.00 0.01 0.01 0.01 0.04 0.07 0.13 0.12 0.10 0.08 0.12 0.11 0.14 0.18 0.13 0.08 0.06 0.09 0.09 0.06 0.08 0.11
0.00 0.00 0.00 0.00 0.00 0.00 0.00 0.00 0.00 0.00 0.00 0.00 0.00 0.00 0.00 0.00 0.00 0.00 0.00 0.00 0.00 0.00 0.00 0.02 0.02 0.02 0.03 0.06 0.05 0.05 0.04 0.05 0.07 0.08 0.12 0.12 0.11 0.07 0.07 0.12 0.13 0.15 0.24 0.25
0.03 0.00 0.02 0.01 0.00 0.00 0.00 0.00 0.00 0.00 0.00 0.00 0.00 0.00 0.00 0.00 0.00 0.00 0.00 0.00 0.00 0.00 0.01 0.02 0.02 0.00 0.01 0.02 0.02 0.02 0.02 0.04 0.05 0.06 0.08 0.08 0.09 0.07 0.11 0.16 0.24 0.25 0.15 0.05
0.08 0.04 0.01 0.00 0.00 0.00 0.00 0.00 0.00 0.00 0.00 0.00 0.00 0.00 0.00 0.00 0.00 0.00 0.00 0.00 0.00 0.00 0.00 0.00 0.00 0.00 0.00 0.01 0.01 0.02 0.03 0.06 0.05 0.04 0.06 0.08 0.16 0.21 0.23 0.17 0.09 0.04 0.03 0.02
0.18 0.12 0.04 0.00 0.00 0.00 0.00 0.00 0.00 0.00 0.00 0.00 0.00 0.00 0.00 0.00 0.00 0.00 0.00 0.00 0.00 0.00 0.00 0.00 0.00 0.00 0.00 0.00 0.00 0.01 0.01 0.03 0.03 0.04 0.06 0.10 0.11 0.10 0.06 0.03 0.02 0.01 0.00 0.00
0.27 0.20 0.05 0.00 0.00 0.00 0.01 0.00 0.00 0.00 0.00 0.00 0.00 0.00 0.00 0.00 0.00 0.00 0.00 0.00 0.00 0.00 0.00 0.00 0.00 0.00 0.00 0.00 0.00 0.00 0.00 0.00 0.01 0.03 0.06 0.05 0.03 0.02 0.01 0.01 0.00 0.00 0.00 0.00
0.25 0.25 0.09 0.01 0.03 0.04 0.01 0.00 0.00 0.00 0.00 0.00 0.00 0.00 0.00 0.00 0.00 0.00 0.00 0.00 0.00 0.00 0.00 0.00 0.00 0.00 0.00 0.00 0.00 0.00 0.00 0.01 0.02 0.01 0.00 0.00 0.00 0.00 0.00 0.00 0.00 0.00 0.00 0.00
0.15 0.16 0.06 0.04 0.06 0.09 0.06 0.01 0.00 0.00 0.00 0.00 0.00 0.00 0.00 0.00 0.00 0.00 0.00 0.00 0.00 0.00 0.00 0.00 0.00 0.00 0.00 0.00 0.00 0.00 0.00 0.00 0.00 0.00 0.00 0.00 0.00 0.00 0.00 0.00 0.00 0.00 0.00 0.00
0.03 0.01 0.00 0.03 0.04 0.02 0.01 0.00 0.01 0.01 0.01 0.01 0.01 0.00 0.00 0.00 0.00 0.00 0.00 0.00 0.00 0.00 0.00 0.00 0.00 0.00 0.00 0.00 0.00 0.00 0.00 0.00 0.00 0.00 0.00 0.00 0.00 0.00 0.00 0.00 0.00 0.00 0.00 0.00
0.01 0.00 0.00 0.02 0.02 0.02 0.01 0.00 0.00 0.00 0.00 0.00 0.00 0.00 0.00 0.00 0.00 0.00 0.00 0.00 0.00 0.00 0.00 0.00 0.00 0.00 0.00 0.00 0.00 0.00 0.00 0.00 0.00 0.00 0.00 0.00 0.00 0.00 0.00 0.00 0.00 0.00 0.00 0.00
0.01 0.03 0.03 0.00 0.01 0.03 0.01 0.00 0.00 0.00 0.00 0.00 0.00 0.00 0.00 0.00 0.00 0.00 0.00 0.00 0.00 0.00 0.00 0.00 0.00 0.00 0.00 0.00 0.00 0.00 0.00 0.00 0.00 0.00 0.00 0.00 0.00 0.00 0.00 0.00 0.00 0.00 0.00 0.00
0.04 0.03 0.04 0.03 0.02 0.02 0.01 0.00 0.01 0.00 0.00 0.00 0.01 0.00 0.00 0.00 0.00 0.00 0.00 0.00 0.00 0.00 0.00 0.00 0.00 0.00 0.00 0.00 0.00 0.00 0.00 0.00 0.00 0.00 0.00 0.00 0.00 0.00 0.00 0.00 0.00 0.00 0.00 0.00
0.01 0.02 0.04 0.02 0.01 0.02 0.02 0.01 0.01 0.01 0.00 0.00 0.01 0.00 0.00 0.00 0.01 0.00 0.00 0.00 0.00 0.00 0.00 0.00 0.00 0.00 0.00 0.00 0.00 0.00 0.00 0.00 0.00 0.00 0.00 0.00 0.00 0.01 0.01 0.02 0.03 0.05 0.05 0.03
0.00 0.00 0.00 0.01 0.02 0.02 0.02 0.01 0.01 0.01 0.00 0.00 0.00 0.00 0.00 0.00 0.00 0.00 0.00 0.00 0.00 0.00 0.00 0.00 0.00 0.00 0.00 0.00 0.00 0.01 0.03 0.05 0.06 0.08 0.09 0.09 0.08 0.09 0.11 0.13 0.14 0.12 0.09 0.07
0.00 0.00 0.00 0.00 0.01 0.01 0.01 0.00 0.00 0.00 0.00 0.00 0.00 0.00 0.00 0.00 0.00 0.00 0.00 0.00 0.00 0.00 0.00 0.01 0.02 0.03 0.05 0.09 0.17 0.24 0.28 0.27 0.24 0.25 0.26 0.26 0.24 0.20 0.16 0.14 0.13 0.11 0.10 0.09
0.02 0.00 0.00 0.00 0.00 0.00 0.00 0.00 0.00 0.00 0.00 0.00 0.00 0.00 0.00 0.00 0.00 0.01 0.02 0.02 0.02 0.05 0.11 0.21 0.36 0.43 0.51 0.53 0.47 0.43 0.39 0.36 0.33 0.30 0.27 0.23 0.18 0.14 0.11 0.10 0.08 0.06 0.05 0.04
0.02 0.02 0.01 0.01 0.01 0.00 0.00 0.00 0.00 0.00 0.00 0.01 0.02 0.03 0.06 0.08 0.12 0.17 0.22 0.26 0.37 0.54 0.65 0.66 0.60 0.53 0.51 0.47 0.40 0.34 0.29 0.24 0.21 0.17 0.14 0.12 0.08 0.07 0.07 0.06 0.05 0.05 0.04 0.03
0.07 0.07 0.07 0.07 0.06 0.05 0.05 0.05 0.06 0.09 0.14 0.18 0.22 0.33 0.42 0.55 0.63 0.75 0.81 0.78 0.77 0.71 0.77 0.61 0.46 0.33 0.28 0.24 0.18 0.16 0.14 0.12 0.10 0.09 0.08 0.06 0.06 0.06 0.05 0.05 0.05 0.05 0.04 0.05
0.13 0.11 0.10 0.12 0.13 0.15 0.20 0.29 0.33 0.42 0.54 0.50 0.53 0.63 0.74 0.85 0.82 0.78 0.67 0.61 0.57 0.48 0.41 0.32 0.24 0.19 0.16 0.13 0.11 0.09 0.07 0.06 0.05 0.05 0.05 0.04 0.05 0.05 0.05 0.05 0.05 0.05 0.03 0.03
0.48 0.48 0.48 0.50 0.60 0.70 0.74 0.79 0.68 0.73 0.81 0.69 0.58 0.64 0.60 0.62 0.52 0.44 0.34 0.32 0.38 0.29 0.22 0.19 0.15 0.12 0.08 0.07 0.06 0.05 0.05 0.05 0.05 0.04 0.04 0.03 0.03 0.03 0.02 0.01 0.02 0.01 0.01 0.01
0.60 0.58 0.65 0.66 0.55 0.63 0.68 0.61 0.48 0.49 0.48 0.46 0.44 0.41 0.35 0.40 0.36 0.30 0.27 0.22 0.25 0.17 0.13 0.11 0.09 0.07 0.05 0.05 0.04 0.04 0.02 0.02 0.01 0.01 0.01 0.01 0.01 0.01 0.00 0.00 0.01 0.01 0.01 0.01
0.65 0.59 0.53 0.46 0.38 0.41 0.38 0.36 0.37 0.28 0.28 0.28 0.27 0.26 0.21 0.21 0.19 0.12 0.16 0.17 0.11 0.10 0.07 0.06 0.05 0.02 0.02 0.02 0.01 0.01 0.00 0.00 0.00 0.01 0.01 0.01 0.02 0.01 0.01 0.01 0.01 0.01 0.01 0.02
0.52 0.48 0.47 0.47 0.31 0.17 0.22 0.29 0.20 0.18 0.16 0.16 0.16 0.15 0.11 0.08 0.10 0.08 0.07 0.07 0.04 0.03 0.03 0.02 0.00 0.00 0.00 0.00 0.01 0.00 0.01 0.01 0.01 0.02 0.02 0.01 0.01 0.02 0.02 0.01 0.01 0.01 0.02 0.01
0.36 0.33 0.31 0.25 0.19 0.24 0.21 0.19 0.12 0.11 0.08 0.08 0.07 0.06 0.05 0.05 0.07 0.09 0.05 0.04 0.03 0.04 0.03 0.01 0.00 0.00 0.00 0.01 0.02 0.01 0.01 0.02 0.02 0.02 0.02 0.02 0.01 0.01 0.01 0.01 0.02 0.02 0.01 0.01
0.23 0.21 0.20 0.16 0.16 0.15 0.12 0.08 0.10 0.12 0.08 0.08 0.10 0.09 0.07 0.05 0.04 0.04 0.04 0.03 0.02 0.01 0.02 0.03 0.01 0.01 0.01 0.01 0.01 0.01 0.01 0.01 0.02 0.03 0.02 0.01 0.01 0.01 0.01 0.01 0.01 0.01 0.01 0.00
0.14 0.13 0.11 0.10 0.12 0.12 0.12 0.11 0.10 0.11 0.10 0.09 0.09 0.08 0.06 0.05 0.04 0.03 0.03 0.01 0.01 0.01 0.01 0.02 0.02 0.02 0.01 0.01 0.01 0.01 0.02 0.02 0.02 0.02 0.01 0.01 0.01 0.01 0.01 0.01 0.01 0.00 0.00 0.00

GFSNGP_prec_precacc24_060.txt.gz
Total_Precipitation_Accumulation
0.00 0.00 0.00 0.00 0.00 0.00 0.00 0.00 0.00 0.00 0.00 0.00 0.00 0.00 0.00 0.00 0.00 0.00 0.00 0.00 0.00 0.00 0.00 0.00 0.00 0.01 0.02 0.04 0.11 0.18 0.17 0.10 0.16 0.16 0.16 0.20 0.21 0.18 0.16 0.14 0.13 0.12 0.10 0.08
0.00 0.00 0.00 0.00 0.00 0.00 0.00 0.00 0.00 0.00 0.00 0.00 0.00 0.00 0.00 0.00 0.00 0.00 0.00 0.00 0.00 0.00 0.00 0.00 0.00 0.00 0.03 0.06 0.12 0.11 0.09 0.08 0.11 0.11 0.14 0.20 0.18 0.12 0.10 0.15 0.17 0.14 0.11 0.11
0.00 0.00 0.00 0.00 0.00 0.00 0.00 0.00 0.00 0.00 0.00 0.00 0.00 0.00 0.00 0.00 0.00 0.00 0.00 0.00 0.00 0.00 0.00 0.02 0.02 0.02 0.03 0.06 0.05 0.05 0.04 0.05 0.07 0.08 0.12 0.12 0.15 0.13 0.14 0.19 0.23 0.18 0.23 0.26
0.03 0.01 0.04 0.01 0.00 0.00 0.00 0.00 0.00 0.00 0.00 0.00 0.00 0.00 0.00 0.00 0.00 0.00 0.00 0.00 0.00 0.00 0.01 0.02 0.02 0.00 0.01 0.02 0.02 0.02 0.02 0.04 0.04 0.05 0.08 0.09 0.14 0.11 0.14 0.20 0.22 0.24 0.19 0.10
0.08 0.04 0.02 0.00 0.00 0.00 0.00 0.00 0.00 0.00 0.00 0.00 0.00 0.00 0.00 0.00 0.00 0.00 0.00 0.00 0.00 0.00 0.00 0.00 0.00 0.00 0.00 0.01 0.01 0.02 0.03 0.05 0.05 0.05 0.06 0.09 0.16 0.17 0.15 0.12 0.11 0.09 0.06 0.05
0.18 0.12 0.04 0.00 0.00 0.00 0.00 0.00 0.00 0.00 0.00 0.00 0.00 0.00 0.00 0.00 0.00 0.00 0.00 0.00 0.00 0.00 0.00 0.00 0.00 0.00 0.00 0.00 0.00 0.01 0.01 0.03 0.04 0.05 0.05 0.05 0.05 0.07 0.06 0.05 0.04 0.04 0.04 0.04
0.27 0.20 0.05 0.00 0.00 0.00 0.01 0.01 0.00 0.00 0.00 0.00 0.00 0.00 0.00 0.00 0.00 0.00 0.00 0.00 0.00 0.00 0.00 0.00 0.00 0.00 0.00 0.00 0.00 0.00 0.00 0.00 0.01 0.01 0.01 0.01 0.01 0.02 0.02 0.02 0.03 0.02 0.02 0.02
0.26 0.26 0.09 0.01 0.03 0.04 0.02 0.00 0.00 0.00 0.00 0.00 0.00 0.00 0.00 0.00 0.00 0.00 0.00 0.00 0.00 0.00 0.00 0.00 0.00 0.00 0.00 0.00 0.00 0.00 0.00 0.00 0.00 0.00 0.00 0.00 0.01 0.01 0.02 0.01 0.02 0.02 0.02 0.01
0.15 0.16 0.06 0.04 0.06 0.10 0.08 0.04 0.01 0.01 0.00 0.00 0.00 0.00 0.00 0.00 0.00 0.00 0.00 0.00 0.00 0.00 0.00 0.00 0.00 0.00 0.00 0.00 0.00 0.00 0.00 0.00 0.00 0.00 0.01 0.03 0.03 0.03 0.03 0.02 0.02 0.01 0.00 0.00
0.03 0.01 0.00 0.03 0.04 0.02 0.01 0.01 0.02 0.02 0.02 0.01 0.01 0.00 0.00 0.00 0.00 0.00 0.00 0.00 0.00 0.00 0.00 0.00 0.00 0.00 0.00 0.02 0.02 0.01 0.00 0.00 0.00 0.00 0.01 0.01 0.02 0.03 0.02 0.01 0.00 0.00 0.00 0.00
0.01 0.00 0.00 0.02 0.02 0.02 0.01 0.00 0.00 0.01 0.00 0.00 0.00 0.00 0.00 0.00 0.00 0.00 0.00 0.00 0.00 0.00 0.00 0.00 0.01 0.01 0.02 0.01 0.01 0.00 0.00 0.00 0.00 0.00 0.00 0.00 0.01 0.01 0.00 0.00 0.00 0.00 0.00 0.00
0.01 0.03 0.03 0.00 0.01 0.03 0.01 0.00 0.00 0.00 0.00 0.00 0.00 0.00 0.00 0.00 0.00 0.00 0.00 0.00 0.00 0.00 0.00 0.00 0.01 0.01 0.00 0.00 0.00 0.00 0.00 0.00 0.00 0.00 0.00 0.00 0.00 0.00 0.00 0.00 0.00 0.00 0.01 0.01
0.04 0.03 0.04 0.03 0.02 0.02 0.01 0.01 0.02 0.01 0.01 0.01 0.01 0.00 0.00 0.00 0.00 0.00 0.00 0.00 0.00 0.00 0.00 0.00 0.00 0.00 0.00 0.00 0.00 0.00 0.00 0.00 0.00 0.00 0.00 0.00 0.00 0.01 0.03 0.06 0.07 0.07 0.08 0.08
0.01 0.02 0.05 0.06 0.05 0.03 0.04 0.05 0.03 0.02 0.01 0.01 0.01 0.01 0.00 0.00 0.01 0.01 0.02 0.01 0.01 0.01 0.01 0.01 0.01 0.01 0.01 0.00 0.00 0.00 0.00 0.01 0.00 0.01 0.05 0.10 0.13 0.13 0.11 0.11 0.12 0.12 0.10 0.06
0.00 0.00 0.00 0.02 0.04 0.04 0.05 0.04 0.03 0.02 0.01 0.00 0.00 0.00 0.00 0.00 0.00 0.00 0.01 0.01 0.02 0.03 0.03 0.02 0.02 0.01 0.00 0.00 0.00 0.02 0.03 0.06 0.11 0.19 0.25 0.22 0.17 0.16 0.16 0.16 0.17 0.16 0.15 0.14
0.00 0.00 0.00 0.00 0.01 0.02 0.02 0.02 0.01 0.01 0.01 0.00 0.00 0.00 0.00 0.00 0.00 0.00 0.00 0.00 0.00 0.01 0.01 0.02 0.04 0.05 0.07 0.10 0.18 0.29 0.40 0.45 0.40 0.37 0.34 0.31 0.28 0.23 0.20 0.18 0.17 0.16 0.15 0.13
0.02 0.01 0.00 0.01 0.01 0.01 0.01 0.01 0.01 0.00 0.00 0.00 0.00 0.00 0.00 0.00 0.00 0.01 0.03 0.03 0.03 0.07 0.14 0.25 0.44 0.53 0.61 0.64 0.59 0.56 0.50 0.46 0.40 0.34 0.30 0.26 0.21 0.16 0.13 0.11 0.10 0.08 0.07 0.06
0.03 0.04 0.03 0.03 0.03 0.02 0.02 0.01 0.01 0.01 0.01 0.01 0.02 0.04 0.06 0.09 0.13 0.18 0.25 0.28 0.38 0.56 0.71 0.76 0.71 0.63 0.60 0.55 0.46 0.40 0.33 0.28 0.23 0.19 0.16 0.13 0.09 0.07 0.07 0.06 0.06 0.05 0.05 0.05
0.08 0.08 0.08 0.09 0.10 0.08 0.06 0.05 0.07 0.10 0.15 0.19 0.23 0.35 0.45 0.57 0.66 0.79 0.86 0.81 0.82 0.77 0.89 0.72 0.56 0.42 0.36 0.32 0.24 0.20 0.18 0.15 0.12 0.10 0.09 0.07 0.06 0.06 0.06 0.05 0.05 0.06 0.05 0.06
0.16 0.14 0.12 0.13 0.14 0.14 0.19 0.31 0.36 0.44 0.57 0.53 0.56 0.66 0.77 0.91 0.88 0.83 0.72 0.65 0.62 0.55 0.47 0.37 0.28 0.22 0.18 0.16 0.12 0.10 0.08 0.07 0.05 0.05 0.05 0.05 0.05 0.06 0.05 0.05 0.05 0.05 0.04 0.03
0.45 0.43 0.43 0.45 0.58 0.70 0.77 0.83 0.71 0.76 0.85 0.73 0.61 0.67 0.64 0.66 0.57 0.48 0.37 0.35 0.44 0.33 0.26 0.21 0.16 0.14 0.09 0.07 0.06 0.06 0.05 0.05 0.05 0.05 0.04 0.04 0.03 0.03 0.02 0.02 0.01 0.01 0.01 0.01
0.61 0.59 0.67 0.67 0.56 0.66 0.72 0.65 0.52 0.52 0.51 0.49 0.46 0.44 0.37 0.43 0.38 0.32 0.30 0.24 0.28 0.19 0.14 0.11 0.09 0.07 0.05 0.05 0.04 0.04 0.02 0.02 0.01 0.01 0.01 0.01 0.01 0.01 0.00 0.00 0.01 0.01 0.01 0.01
0.64 0.58 0.54 0.48 0.42 0.45 0.42 0.40 0.40 0.31 0.31 0.31 0.30 0.28 0.23 0.23 0.20 0.13 0.16 0.17 0.12 0.10 0.07 0.06 0.05 0.02 0.02 0.02 0.01 0.01 0.00 0.00 0.00 0.01 0.01 0.01 0.02 0.01 0.01 0.01 0.01 0.01 0.01 0.02
0.52 0.48 0.47 0.48 0.33 0.20 0.25 0.33 0.23 0.20 0.17 0.17 0.17 0.15 0.11 0.08 0.10 0.09 0.07 0.07 0.04 0.03 0.03 0.02 0.00 0.00 0.00 0.00 0.01 0.00 0.01 0.01 0.01 0.01 0.02 0.01 0.01 0.02 0.02 0.01 0.01 0.01 0.01 0.01
0.34 0.32 0.30 0.25 0.19 0.25 0.22 0.19 0.12 0.11 0.08 0.08 0.07 0.06 0.05 0.05 0.07 0.10 0.06 0.04 0.03 0.04 0.03 0.01 0.00 0.00 0.00 0.01 0.01 0.01 0.01 0.02 0.02 0.01 0.02 0.02 0.01 0.01 0.01 0.01 0.02 0.01 0.01 0.01
0.21 0.19 0.19 0.16 0.16 0.15 0.13 0.08 0.10 0.12 0.08 0.08 0.09 0.09 0.08 0.06 0.04 0.05 0.04 0.03 0.02 0.01 0.02 0.02 0.01 0.01 0.01 0.01 0.01 0.01 0.01 0.01 0.02 0.02 0.02 0.01 0.01 0.01 0.01 0.01 0.01 0.01 0.01 0.00
0.09 0.08 0.07 0.06 0.08 0.09 0.09 0.08 0.07 0.08 0.08 0.08 0.09 0.08 0.06 0.05 0.04 0.03 0.03 0.01 0.01 0.01 0.01 0.01 0.02 0.02 0.01 0.01 0.01 0.01 0.01 0.02 0.02 0.02 0.01 0.01 0.01 0.02 0.01 0.01 0.01 0.00 0.00 0.00

GFSNGP_prec_precacc24_063.txt.gz
Total_Precipitation_Accumulation
0.00 0.00 0.00 0.00 0.00 0.00 0.00 0.00 0.00 0.00 0.00 0.00 0.00 0.00 0.00 0.00 0.00 0.00 0.00 0.00 0.00 0.00 0.00 0.00 0.00 0.00 0.01 0.03 0.09 0.16 0.16 0.10 0.16 0.16 0.16 0.20 0.21 0.18 0.17 0.16 0.16 0.16 0.13 0.10
0.00 0.00 0.00 0.00 0.00 0.00 0.00 0.00 0.00 0.00 0.00 0.00 0.00 0.00 0.00 0.00 0.00 0.00 0.00 0.00 0.00 0.00 0.00 0.00 0.00 0.00 0.02 0.06 0.12 0.11 0.09 0.08 0.11 0.11 0.14 0.20 0.18 0.12 0.11 0.17 0.21 0.20 0.17 0.21
0.00 0.00 0.00 0.00 0.00 0.00 0.00 0.00 0.00 0.00 0.00 0.00 0.00 0.00 0.00 0.00 0.00 0.00 0.00 0.00 0.00 0.00 0.00 0.02 0.02 0.02 0.03 0.06 0.05 0.05 0.04 0.05 0.07 0.08 0.12 0.12 0.15 0.13 0.15 0.22 0.28 0.23 0.21 0.19
0.03 0.01 0.04 0.01 0.00 0.00 0.00 0.00 0.00 0.00 0.00 0.00 0.00 0.00 0.00 0.00 0.00 0.00 0.00 0.00 0.00 0.00 0.01 0.02 0.02 0.00 0.01 0.02 0.02 0.02 0.02 0.04 0.04 0.05 0.08 0.09 0.14 0.10 0.12 0.16 0.16 0.14 0.16 0.15
0.08 0.04 0.02 0.00 0.00 0.00 0.00 0.00 0.00 0.00 0.00 0.00 0.00 0.00 0.00 0.00 0.00 0.00 0.00 0.00 0.00 0.00 0.00 0.00 0.00 0.00 0.00 0.01 0.01 0.02 0.03 0.05 0.05 0.05 0.06 0.08 0.13 0.12 0.11 0.11 0.12 0.12 0.10 0.10
0.18 0.12 0.04 0.00 0.00 0.00 0.00 0.00 0.00 0.00 0.00 0.00 0.00 0.00 0.00 0.00 0.00 0.00 0.00 0.00 0.00 0.00 0.00 0.00 0.00 0.00 0.00 0.00 0.00 0.01 0.01 0.03 0.04 0.05 0.05 0.04 0.05 0.07 0.06 0.07 0.07 0.05 0.07 0.07
0.31 0.22 0.05 0.00 0.00 0.00 0.01 0.01 0.00 0.00 0.00 0.00 0.00 0.00 0.00 0.00 0.00 0.00 0.00 0.00 0.00 0.00 0.00 0.00 0.00 0.00 0.00 0.00 0.00 0.00 0.00 0.00 0.01 0.01 0.02 0.02 0.01 0.02 0.03 0.03 0.04 0.03 0.04 0.04
0.27 0.28 0.09 0.01 0.03 0.04 0.02 0.00 0.00 0.00 0.00 0.00 0.00 0.00 0.00 0.00 0.00 0.00 0.00 0.00 0.00 0.00 0.00 0.00 0.00 0.00 0.00 0.00 0.00 0.00 0.00 0.00 0.02 0.02 0.03 0.04 0.04 0.02 0.02 0.02 0.02 0.04 0.04 0.04
0.15 0.16 0.06 0.04 0.06 0.10 0.08 0.04 0.01 0.01 0.00 0.00 0.00 0.00 0.00 0.00 0.00 0.00 0.00 0.00 0.00 0.00 0.00 0.00 0.00 0.00 0.00 0.00 0.00 0.00 0.01 0.03 0.03 0.03 0.04 0.04 0.03 0.05 0.04 0.04 0.04 0.05 0.04 0.05
0.03 0.01 0.00 0.03 0.04 0.02 0.01 0.01 0.02 0.02 0.02 0.01 0.01 0.00 0.00 0.00 0.00 0.00 0.00 0.00 0.00 0.00 0.00 0.00 0.00 0.00 0.00 0.02 0.03 0.04 0.05 0.04 0.04 0.02 0.02 0.02 0.03 0.04 0.05 0.05 0.07 0.08 0.08 0.06
0.01 0.00 0.00 0.02 0.02 0.02 0.01 0.00 0.00 0.01 0.00 0.00 0.00 0.00 0.00 0.00 0.00 0.00 0.00 0.00 0.00 0.00 0.00 0.01 0.01 0.01 0.02 0.03 0.04 0.03 0.01 0.01 0.00 0.00 0.00 0.00 0.01 0.02 0.02 0.03 0.04 0.03 0.04 0.04
0.01 0.03 0.03 0.00 0.01 0.03 0.01 0.00 0.00 0.00 0.00 0.00 0.00 0.00 0.00 0.00 0.00 0.00 0.00 0.01 0.00 0.00 0.00 0.00 0.01 0.01 0.01 0.01 0.01 0.01 0.01 0.00 0.00 0.00 0.00 0.00 0.00 0.01 0.02 0.01 0.02 0.02 0.04 0.05
0.04 0.03 0.04 0.03 0.02 0.02 0.01 0.01 0.02 0.01 0.01 0.02 0.01 0.00 0.00 0.00 0.00 0.00 0.00 0.00 0.00 0.00 0.01 0.01 0.00 0.00 0.00 0.00 0.01 0.01 0.00 0.00 0.00 0.00 0.00 0.00 0.00 0.01 0.05 0.16 0.19 0.20 0.20 0.18
0.01 0.02 0.05 0.06 0.05 0.03 0.04 0.05 0.04 0.03 0.01 0.01 0.01 0.01 0.00 0.01 0.01 0.02 0.02 0.02 0.02 0.03 0.04 0.06 0.08 0.09 0.08 0.07 0.06 0.05 0.05 0.05 0.05 0.05 0.07 0.11 0.15 0.17 0.18 0.18 0.19 0.20 0.16 0.10
0.00 0.00 0.00 0.02 0.04 0.04 0.05 0.07 0.12 0.14 0.14 0.11 0.04 0.01 0.00 0.00 0.00 0.00 0.01 0.01 0.02 0.03 0.04 0.05 0.07 0.09 0.10 0.10 0.09 0.10 0.12 0.14 0.17 0.25 0.32 0.32 0.27 0.24 0.22 0.21 0.20 0.20 0.18 0.17
0.00 0.00 0.00 0.00 0.01 0.02 0.02 0.03 0.04 0.05 0.07 0.07 0.04 0.02 0.01 0.00 0.00 0.00 0.00 0.00 0.00 0.02 0.02 0.02 0.06 0.10 0.12 0.19 0.31 0.47 0.62 0.66 0.58 0.51 0.47 0.42 0.35 0.28 0.23 0.21 0.19 0.18 0.16 0.14
0.02 0.01 0.01 0.02 0.02 0.02 0.03 0.03 0.03 0.03 0.03 0.03 0.03 0.02 0.01 0.00 0.01 0.02 0.04 0.03 0.03 0.08 0.16 0.27 0.49 0.59 0.68 0.73 0.68 0.68 0.63 0.60 0.53 0.44 0.37 0.31 0.25 0.19 0.15 0.13 0.12 0.09 0.09 0.07
0.03 0.04 0.05 0.06 0.06 0.06 0.07 0.09 0.08 0.06 0.05 0.05 0.05 0.04 0.07 0.10 0.15 0.20 0.28 0.29 0.39 0.57 0.74 0.80 0.75 0.68 0.65 0.61 0.52 0.46 0.38 0.33 0.28 0.23 0.19 0.16 0.12 0.10 0.10 0.08 0.07 0.07 0.07 0.06
0.07 0.07 0.07 0.09 0.12 0.11 0.10 0.11 0.11 0.10 0.12 0.14 0.18 0.32 0.44 0.59 0.68 0.82 0.89 0.81 0.83 0.78 0.94 0.77 0.60 0.44 0.39 0.35 0.27 0.23 0.21 0.18 0.15 0.14 0.11 0.09 0.07 0.07 0.06 0.06 0.06 0.06 0.06 0.06
0.12 0.12 0.12 0.15 0.16 0.16 0.18 0.25 0.24 0.31 0.48 0.48 0.53 0.66 0.78 0.93 0.91 0.86 0.73 0.67 0.65 0.59 0.51 0.41 0.30 0.24 0.20 0.17 0.12 0.10 0.08 0.07 0.06 0.06 0.05 0.05 0.05 0.06 0.05 0.05 0.05 0.05 0.04 0.03
0.43 0.44 0.44 0.45 0.52 0.59 0.66 0.73 0.62 0.71 0.85 0.75 0.62 0.69 0.66 0.69 0.60 0.51 0.39 0.36 0.48 0.36 0.27 0.22 0.16 0.14 0.09 0.07 0.06 0.06 0.05 0.05 0.05 0.05 0.04 0.04 0.03 0.03 0.02 0.02 0.01 0.01 0.01 0.01
0.60 0.57 0.64 0.64 0.52 0.62 0.70 0.65 0.53 0.53 0.53 0.51 0.48 0.47 0.40 0.46 0.42 0.35 0.32 0.26 0.29 0.19 0.14 0.11 0.09 0.07 0.05 0.05 0.04 0.04 0.02 0.02 0.01 0.01 0.01 0.01 0.01 0.01 0.00 0.00 0.01 0.01 0.01 0.01
0.60 0.54 0.50 0.46 0.41 0.46 0.45 0.43 0.43 0.34 0.33 0.34 0.32 0.31 0.25 0.25 0.21 0.13 0.16 0.17 0.12 0.10 0.07 0.06 0.05 0.02 0.02 0.02 0.01 0.01 0.00 0.00 0.00 0.01 0.01 0.01 0.02 0.01 0.01 0.01 0.01 0.01 0.01 0.02
0.51 0.47 0.47 0.48 0.35 0.22 0.27 0.36 0.25 0.22 0.19 0.18 0.17 0.15 0.11 0.08 0.10 0.09 0.07 0.07 0.04 0.03 0.03 0.02 0.00 0.00 0.00 0.00 0.01 0.00 0.01 0.01 0.01 0.01 0.02 0.01 0.01 0.02 0.02 0.01 0.01 0.01 0.01 0.01
0.33 0.31 0.29 0.24 0.18 0.24 0.21 0.19 0.12 0.11 0.08 0.08 0.07 0.06 0.05 0.05 0.07 0.10 0.06 0.04 0.03 0.04 0.03 0.01 0.00 0.00 0.00 0.01 0.01 0.01 0.01 0.02 0.02 0.01 0.02 0.02 0.01 0.01 0.01 0.01 0.02 0.01 0.01 0.01
0.17 0.15 0.14 0.11 0.12 0.11 0.10 0.06 0.08 0.11 0.07 0.06 0.08 0.07 0.06 0.05 0.04 0.04 0.04 0.03 0.02 0.01 0.02 0.02 0.01 0.01 0.01 0.01 0.01 0.01 0.01 0.01 0.02 0.02 0.02 0.01 0.01 0.01 0.01 0.01 0.01 0.01 0.01 0.00
0.04 0.03 0.03 0.02 0.03 0.04 0.04 0.04 0.04 0.05 0.05 0.06 0.06 0.06 0.04 0.03 0.03 0.02 0.03 0.01 0.01 0.01 0.01 0.01 0.02 0.02 0.01 0.01 0.01 0.01 0.01 0.02 0.02 0.02 0.01 0.01 0.01 0.02 0.01 0.01 0.01 0.00 0.00 0.00